Tracking 19796 objects as of 19-Jul-2019
HD Live streaming from Space Station
objects crossing your sky now

SCOUT G-1 R/B

Track SCOUT G-1 R/B now!
10-day predictions


NORAD ID: 19072
Int'l Code: 1988-033C
Perigee: 1,022.3 km
Apogee: 1,306.8 km
Inclination: 90.4 °
Period: 108.5 minutes
Semi major axis: 7535 km
RCS: 0.767 m2 (medium)
Launch date: April 26, 1988
Source: United States (US)
Launch site: AIR FORCE WESTERN TEST RANGE (AFWTR)

Note: This is a ROCKET BODY
aabbcc
Your satellite tracking list
Your tracking list is empty




NASA's NSSDC Master Catalog

Two Line Element Set (TLE):
1 19072U 88033C   19200.21895177  .00000065  00000-0  11748-3 0  9998
2 19072  90.3702 300.2798 0188817 213.4620 206.7407 13.27178015512292
Source of the keplerian elements: AFSPC